Theta_e
346 343 345 336 320 319 314 315 322 322 324 331 332 329 327 330 325 323 350 346 348 350 354 353 354 355 355 354 353 351 353 355 355 357 356 353 352 351 351 349 349 347 346 343 342 342 342 342 342
337 338 335 325 314 312 312 317 316 323 330 334 333 331 329 328 338 342 345 348 351 351 353 353 356 356 354 353 351 353 355 356 357 354 352 350 348 346 344 342 341 341 342 341 341 341 341 340 341
336 332 322 318 317 310 311 315 320 327 333 332 330 334 332 330 340 345 350 350 352 351 353 357 357 355 354 352 352 355 357 355 353 351 345 342 341 340 341 341 341 341 340 340 340 339 339 339 339
327 323 322 313 309 313 313 316 322 328 332 333 333 329 337 345 344 349 350 351 351 350 351 356 356 355 353 351 354 358 355 353 351 345 341 341 341 340 341 340 340 340 340 339 338 337 337 337 338
324 321 313 310 309 314 316 317 322 327 329 330 333 329 334 344 351 351 351 351 349 347 351 354 356 354 351 353 357 355 353 351 346 342 340 339 339 339 340 341 340 339 339 337 337 338 340 341 341
316 319 310 308 309 314 318 320 322 328 329 331 331 331 336 349 350 349 350 349 347 346 349 354 355 352 354 355 355 353 350 347 344 342 340 339 339 338 340 339 338 338 336 337 338 339 340 340 342
313 312 309 309 310 315 320 324 323 327 328 330 336 328 338 345 350 350 349 347 345 346 348 350 351 351 355 355 353 350 347 345 343 342 341 339 339 339 339 338 337 336 338 338 338 338 338 339 340
315 314 309 310 310 313 322 327 328 330 330 339 339 328 332 343 350 350 348 344 344 345 346 348 349 347 352 354 351 348 345 344 343 340 338 340 340 337 336 339 335 336 338 337 336 335 336 337 338
316 309 307 309 311 314 317 318 330 331 329 335 337 335 340 347 349 345 342 340 341 342 345 347 345 347 347 350 348 345 343 342 343 337 334 335 338 336 335 333 334 336 336 336 335 333 330 331 336
310 307 308 313 314 313 315 312 314 318 321 328 333 339 343 346 344 338 336 336 338 341 344 346 345 345 348 347 346 343 341 341 343 339 338 338 338 334 331 332 334 336 335 334 332 328 328 336 331
310 306 311 313 314 315 314 312 314 313 315 322 327 336 341 343 342 336 336 336 337 341 345 345 347 349 348 344 343 342 341 339 339 338 338 337 334 334 334 331 331 332 332 331 331 329 328 330 330
306 309 310 312 314 313 312 313 311 314 317 327 330 337 342 342 340 337 337 340 339 342 345 347 347 348 350 345 341 342 340 339 338 337 336 335 332 335 334 329 330 333 330 331 331 329 329 328 328
306 307 309 311 311 312 313 310 311 313 318 326 332 338 340 341 342 341 338 343 344 342 345 347 347 349 349 346 344 344 340 339 338 337 336 337 335 335 333 332 330 330 332 330 330 329 328 326 326
308 308 309 310 310 311 309 310 314 318 324 325 333 335 340 341 342 342 340 343 344 343 345 346 346 348 349 347 346 344 343 338 340 338 336 336 335 335 330 329 328 328 330 332 332 330 328 326 326
309 306 308 309 310 310 311 308 311 319 322 324 331 336 338 341 343 343 343 344 346 346 345 346 347 348 349 348 345 344 341 339 339 338 337 334 335 334 333 329 329 328 329 332 331 332 330 327 325
306 307 304 308 311 309 309 306 312 321 323 322 326 332 336 340 342 345 345 347 349 349 346 347 343 346 348 347 345 342 338 337 341 337 334 332 333 332 331 328 327 329 328 328 327 329 329 328 326
306 304 304 306 313 310 309 307 319 326 323 322 329 333 334 338 342 345 346 347 349 351 350 346 346 344 347 346 344 340 338 335 340 339 334 332 330 328 329 327 325 326 326 326 324 326 329 326 327
302 303 304 304 310 314 313 314 320 324 322 322 326 329 332 335 339 344 347 346 349 351 350 350 346 346 344 337 334 333 331 331 333 334 335 330 330 327 327 325 325 324 324 323 325 325 326 324 326
306 304 303 306 312 314 313 315 319 323 324 325 328 327 330 334 339 341 344 345 347 349 349 350 347 338 334 333 331 325 324 328 330 332 331 329 328 326 327 323 323 324 324 326 325 322 320 317 322
305 304 305 310 313 314 313 313 318 320 322 326 328 330 331 331 336 338 339 342 345 347 349 347 338 334 333 334 330 326 323 324 328 328 327 328 326 324 325 325 322 324 320 325 323 323 318 319 319
305 304 304 305 309 309 311 311 314 318 321 323 328 330 332 333 334 335 338 339 342 346 346 340 337 341 340 335 333 327 325 321 321 321 325 324 324 322 324 323 323 322 321 319 322 321 319 314 316
304 308 306 305 305 302 310 303 311 314 316 320 324 329 330 333 335 336 338 340 343 345 344 341 343 345 340 333 330 325 322 321 320 318 323 323 323 323 323 322 322 324 321 322 320 319 319 318 314
306 308 307 306 306 304 305 302 309 314 312 317 322 328 330 334 336 336 337 339 340 340 336 339 344 346 340 334 330 329 328 325 323 320 321 323 324 324 321 322 322 321 318 321 321 319 319 316 315
310 308 308 308 305 300 304 303 304 309 312 316 321 327 330 333 335 336 338 336 339 341 339 340 341 342 339 333 331 329 329 328 321 320 319 320 320 321 322 322 323 322 319 319 319 321 319 319 318
309 307 301 299 301 298 306 302 308 312 315 317 318 325 330 333 334 335 334 335 338 340 337 338 338 339 341 335 332 332 330 329 326 322 320 322 320 319 322 324 323 321 321 318 320 320 319 318 317
307 307 301 292 298 299 305 300 307 315 317 319 321 327 331 333 333 334 336 338 339 339 340 341 337 338 342 338 333 334 334 332 328 325 320 322 321 322 325 324 324 322 322 319 318 317 316 319 317
307 305 310 303 304 299 303 305 312 314 314 316 317 324 326 330 332 335 336 337 339 339 339 342 340 338 339 337 338 334 335 332 326 321 322 324 326 323 324 324 324 322 321 321 319 316 316 317 317
309 311 303 304 294 293 299 299 304 309 310 313 315 320 325 327 331 333 337 337 340 341 342 340 339 338 339 339 336 334 332 328 323 320 320 324 326 324 323 323 322 322 321 320 320 318 318 317 316
305 304 305 305 302 296 295 300 310 309 312 312 314 320 324 325 326 331 333 336 338 339 339 342 340 337 336 336 336 334 330 326 321 319 320 323 328 324 322 323 323 321 321 321 321 320 318 316 317
308 305 304 299 297 301 299 298 312 314 315 317 316 319 324 327 327 328 328 329 330 331 334 338 341 340 335 336 336 334 331 330 323 322 323 326 327 326 324 324 322 321 320 320 319 318 317 317 315
Wind_Speed
11 10 5 7 9 6 6 5 4 1 3 3 1 2 6 5 7 6 7 8 15 15 16 16 14 14 14 13 13 12 12 12 11 10 13 13 11 10 10 10 9 9 10 10 9 9 8 8 7
7 5 6 5 8 5 5 4 3 4 4 3 3 3 2 9 5 8 12 10 15 15 14 14 13 12 13 12 12 12 12 12 11 13 12 11 11 10 10 10 9 9 9 9 9 9 9 9 9
7 7 8 5 3 6 5 4 4 4 6 5 4 2 4 6 4 10 14 17 15 14 13 15 13 12 12 11 11 11 12 13 12 12 12 12 12 11 11 10 10 9 9 8 9 9 9 8 9
6 6 6 10 2 6 3 5 3 5 5 4 2 5 6 5 6 7 16 17 15 15 13 16 13 13 12 13 12 12 14 12 11 12 13 13 12 11 11 9 9 9 10 10 9 9 9 8 8
7 5 7 6 2 0 4 4 4 5 2 2 3 6 5 6 10 14 15 16 16 15 14 16 13 13 12 12 11 14 13 12 12 13 11 12 11 10 10 9 10 11 11 10 9 10 11 11 11
8 5 8 7 4 1 2 3 3 6 2 5 3 5 7 9 13 14 15 15 14 14 14 15 13 12 12 11 13 12 12 12 12 11 10 9 9 10 11 11 10 11 11 10 10 11 11 12 12
13 8 5 1 3 7 6 1 4 2 4 1 2 2 6 12 13 14 13 14 14 13 12 14 14 12 11 13 12 11 12 12 11 10 9 7 9 10 11 11 10 10 12 12 11 11 11 12 12
7 8 6 5 4 10 7 2 2 4 4 4 4 1 7 13 16 14 13 13 13 12 12 13 13 14 13 13 11 11 11 12 11 10 10 10 12 11 8 13 10 9 11 11 11 10 10 9 11
4 7 8 6 6 7 4 2 4 5 3 7 5 1 6 20 18 15 14 13 13 11 11 10 11 11 11 13 11 11 11 10 10 10 7 9 4 6 9 10 9 10 10 10 11 9 4 2 10
9 7 5 5 3 2 7 5 6 5 5 8 8 6 13 20 18 18 17 15 15 12 13 10 9 10 8 7 11 8 8 5 5 4 4 3 4 6 7 9 10 10 11 10 9 3 3 4 6
6 6 4 6 4 9 10 9 6 8 9 6 8 12 16 20 18 17 16 15 15 14 10 9 10 8 10 8 6 4 4 5 5 5 3 4 4 3 2 4 6 7 7 3 4 5 8 9 7
7 6 7 5 5 8 10 8 9 10 9 3 1 11 18 19 18 17 15 14 14 15 13 11 11 9 7 5 6 5 4 4 4 4 4 3 3 2 2 3 4 1 4 3 3 6 7 8 8
9 4 5 8 8 8 11 12 12 15 6 1 4 11 16 17 17 16 15 13 13 14 13 11 9 7 6 5 3 2 3 3 4 3 3 1 1 2 2 2 2 3 2 3 3 5 5 6 8
1 5 7 6 8 8 11 9 4 7 10 6 6 10 12 13 12 12 13 13 11 11 12 11 10 8 7 5 3 2 1 4 1 2 4 1 1 2 3 3 3 3 3 2 2 3 4 5 7
6 10 8 8 3 5 5 11 10 7 8 7 8 7 6 9 12 13 14 14 13 11 12 11 10 10 9 6 4 2 3 2 4 4 2 2 1 2 1 2 2 3 4 3 3 3 3 4 5
9 7 11 6 3 3 7 13 8 9 9 7 5 3 4 7 10 12 13 13 13 12 13 13 11 13 11 7 5 3 4 3 3 2 2 1 2 1 1 1 1 2 3 3 3 3 2 2 4
8 7 8 9 5 2 6 9 14 10 7 4 4 2 4 5 8 11 13 14 15 13 12 11 11 12 10 7 6 6 6 2 3 2 3 0 1 1 1 1 3 3 2 3 3 3 2 3 2
7 8 8 4 5 3 1 7 7 6 5 3 1 2 5 8 11 12 14 14 14 13 13 19 14 11 14 10 7 5 3 2 3 3 2 4 2 2 2 3 2 3 3 4 3 2 1 2 2
2 1 2 5 4 3 7 10 12 12 14 13 11 5 1 7 9 11 13 14 13 12 11 11 12 15 12 9 8 6 4 3 3 3 6 5 3 4 3 3 3 1 3 2 4 4 4 4 3
3 3 8 10 6 1 7 12 12 13 13 15 15 12 9 5 7 9 11 13 14 14 13 14 16 18 14 8 6 4 8 2 2 3 3 5 5 4 3 2 3 1 4 4 4 4 3 2 4
3 3 5 3 5 3 5 10 9 8 11 13 14 14 14 11 4 8 7 8 10 13 16 19 21 19 15 8 6 5 6 5 5 3 3 6 7 5 4 3 3 3 3 4 4 4 4 3 3
6 2 2 3 9 2 4 3 9 5 9 11 13 14 15 14 12 7 4 7 9 10 12 15 14 13 9 7 8 12 10 8 4 4 3 5 7 6 6 4 4 1 0 2 3 3 2 5 3
9 2 4 4 5 7 7 11 12 3 8 11 12 12 12 12 11 8 5 3 5 5 9 9 10 11 8 10 10 10 9 4 6 6 9 7 8 8 7 5 5 4 3 3 1 3 4 3 3
0 6 7 8 5 9 6 9 7 8 7 8 9 10 8 9 9 8 7 3 5 8 9 8 9 10 5 8 11 13 13 10 9 7 8 8 7 7 7 7 6 5 5 5 4 3 3 3 2
7 8 7 4 3 6 3 9 11 8 6 7 7 8 8 7 7 7 6 5 3 8 6 6 8 9 7 7 9 11 12 13 13 12 8 9 8 7 9 8 7 6 5 4 3 4 3 3 2
2 6 8 4 2 5 6 3 9 6 4 3 4 6 7 5 6 5 2 1 4 9 8 7 9 11 10 9 9 10 13 10 10 11 8 9 9 9 11 10 9 8 6 5 4 5 5 3 4
6 5 8 8 5 8 5 5 9 7 8 5 4 3 4 4 3 2 1 3 2 3 6 7 6 10 9 10 9 9 11 12 9 10 9 9 9 8 11 11 10 9 8 7 6 5 5 4 5
6 4 6 7 5 4 6 4 1 10 7 8 7 5 4 3 4 4 1 2 3 4 4 3 2 4 5 6 8 8 10 9 8 7 8 9 10 11 13 12 10 10 9 8 7 7 7 7 6
4 8 3 5 6 10 9 2 6 2 3 5 6 6 4 3 5 4 4 4 2 2 3 2 4 4 5 8 7 8 8 9 9 9 9 9 12 13 13 13 12 11 10 10 9 8 6 9 9
6 4 4 6 3 4 8 12 6 2 5 5 3 3 6 2 7 5 4 4 4 6 5 2 3 4 5 6 6 7 8 9 10 11 11 10 11 11 12 12 12 11 10 8 9 9 9 10 10
Wind_Direction
172 192 233 245 238 239 96 87 349 238 190 76 98 231 16 13 358 26 128 132 138 139 134 147 148 145 141 137 134 128 122 119 116 107 85 83 79 77 75 70 67 61 51 46 43 35 33 22 18
179 200 229 269 260 175 89 25 301 59 81 167 140 173 267 63 54 103 141 151 148 134 141 145 145 142 139 138 132 131 130 122 108 93 89 88 88 86 80 79 79 74 66 55 43 37 28 23 21
211 253 269 288 270 44 43 358 355 99 147 173 149 312 6 55 70 134 116 148 143 140 143 125 145 140 139 134 133 134 120 104 104 104 100 93 89 86 84 83 77 71 63 57 53 41 28 13 8
218 203 214 252 85 94 346 341 75 155 155 203 34 111 113 32 140 131 142 149 144 147 153 129 142 144 145 141 147 141 113 114 114 112 103 96 89 85 79 76 68 61 60 58 47 37 30 16 18
229 257 244 226 126 19 283 317 280 197 103 200 220 97 84 92 111 132 149 156 153 154 145 149 150 150 148 150 151 110 118 120 117 109 103 93 85 73 70 72 69 58 51 47 44 47 42 37 37
226 280 238 226 109 338 310 293 238 226 267 87 207 145 102 120 146 149 152 157 156 152 151 135 147 151 150 154 123 123 123 121 116 112 98 91 85 80 80 68 66 54 47 51 61 48 45 39 38
262 235 260 270 98 111 45 106 213 302 195 258 42 191 97 158 143 150 158 155 155 157 154 156 155 150 161 128 128 131 128 124 120 113 99 94 95 94 84 75 63 56 67 66 60 47 38 36 36
267 269 210 207 171 84 87 214 36 247 113 59 199 93 140 160 152 154 163 159 160 160 164 160 151 166 168 151 140 136 132 128 123 108 102 109 106 109 114 128 70 77 76 73 64 53 45 53 46
252 239 211 155 204 109 91 332 121 32 224 216 175 320 86 146 156 159 164 166 165 167 170 164 168 165 177 144 135 145 138 143 137 135 136 185 105 118 104 74 86 95 86 79 71 58 27 167 99
233 250 181 37 352 311 329 334 354 277 201 210 191 110 134 154 164 167 171 172 169 182 172 172 170 169 160 151 160 160 149 142 150 127 135 117 84 63 78 98 106 102 105 102 97 87 232 317 47
180 250 163 214 264 306 308 301 359 280 276 234 207 158 159 166 173 176 177 176 175 177 172 187 163 178 171 168 164 166 154 142 136 145 166 90 136 155 117 136 145 147 195 121 137 74 47 43 45
227 236 250 257 271 272 284 331 293 271 288 14 209 164 170 177 180 182 177 174 174 178 179 184 170 178 201 156 197 154 145 155 160 122 143 136 170 152 30 42 103 145 67 102 69 77 64 58 58
236 194 226 241 259 263 284 279 294 290 296 143 246 164 180 187 184 183 175 171 173 175 177 180 190 187 182 205 159 186 123 176 90 164 124 163 126 89 102 81 62 64 85 109 93 80 62 87 65
147 281 259 249 254 244 253 261 273 94 351 180 200 194 188 190 186 176 175 171 178 169 176 178 192 177 181 214 180 153 131 89 108 51 90 149 154 136 128 145 114 100 95 103 137 91 88 78 88
266 267 204 212 244 251 281 246 231 350 315 252 212 197 182 188 176 184 184 174 175 171 168 185 180 175 178 192 187 180 132 95 46 30 59 86 127 128 130 98 121 112 110 142 137 157 125 107 96
250 240 178 107 335 110 226 243 104 349 320 262 227 146 200 184 189 183 182 181 169 173 175 179 176 173 175 171 161 165 84 55 63 312 132 100 107 118 238 141 80 95 173 187 150 175 151 130 109
204 134 112 131 26 178 242 287 14 342 315 291 45 47 178 171 188 196 190 186 178 179 168 173 179 173 164 127 76 66 91 59 128 350 286 131 150 122 320 21 86 224 184 191 166 183 238 139 170
123 153 147 66 69 81 55 30 19 26 15 40 73 123 193 187 199 200 199 193 189 175 175 171 170 160 103 83 76 42 39 113 137 160 281 224 188 153 261 95 98 238 187 171 160 169 175 276 211
72 138 108 94 127 18 55 55 56 61 55 51 43 19 256 211 188 202 204 197 183 181 179 169 142 112 127 139 170 152 201 213 197 175 192 186 215 193 198 161 154 202 206 95 181 181 187 172 204
203 190 109 94 98 278 96 88 74 58 51 47 42 29 13 318 174 206 210 204 187 175 175 143 140 150 167 170 184 128 139 195 200 210 199 191 189 226 199 214 136 308 136 180 188 228 220 204 218
166 356 127 23 163 176 241 129 107 75 68 51 47 39 34 22 323 187 198 211 184 170 164 159 166 175 169 152 174 114 115 90 148 219 193 207 175 204 208 183 77 148 268 155 194 203 255 207 211
145 79 282 229 240 167 229 135 125 81 68 51 41 35 36 40 45 59 149 169 185 173 165 177 188 174 161 159 158 159 177 173 179 157 222 191 182 200 196 162 140 132 100 121 187 203 212 276 166
53 309 299 279 271 279 121 267 113 116 54 45 37 37 38 44 52 61 78 79 63 122 159 199 194 179 157 179 179 188 190 164 154 156 191 202 185 195 193 169 159 140 163 113 160 192 259 188 279
81 226 225 242 250 214 78 292 119 85 41 41 44 40 40 40 57 60 63 116 152 171 180 193 204 195 163 183 181 189 205 187 157 184 188 183 177 185 196 186 173 146 131 166 160 162 189 316 302
220 245 247 226 201 58 93 265 65 95 76 37 34 41 44 41 41 43 63 119 135 131 144 193 191 221 194 198 193 201 203 187 195 184 187 192 185 192 182 187 182 164 156 164 172 199 160 206 213
322 320 317 275 249 74 151 236 106 108 113 84 78 62 46 52 56 40 65 103 156 173 215 175 200 226 226 211 214 212 199 203 202 187 193 198 199 188 166 195 186 167 171 174 185 206 226 176 206
123 249 27 285 193 257 89 135 166 174 181 181 138 116 86 76 69 43 94 249 297 264 266 295 220 208 235 216 224 207 215 208 193 180 203 204 203 178 177 188 195 178 174 191 180 236 217 204 217
332 34 231 199 280 274 151 270 292 175 204 179 182 149 118 115 121 114 65 341 271 259 268 322 311 260 269 233 214 211 221 209 191 174 187 207 196 192 181 189 196 188 181 193 197 217 210 222 224
194 208 234 307 302 301 288 261 85 192 246 228 205 140 135 129 114 132 138 150 225 252 275 213 206 224 219 212 215 210 200 200 188 190 196 216 200 192 187 191 196 195 189 200 208 235 238 221 237
282 306 276 299 269 239 302 288 113 158 213 222 279 215 131 162 164 167 119 91 51 33 11 266 224 215 202 225 233 207 208 196 191 200 208 213 215 204 202 195 200 200 202 201 214 226 243 230 235